Miscellaneous Local Product
Issued by NWS Hastings, NE

Home | Current Version | Previous Version | Text Only | Print | Product List | Glossary Off
Versions: 1 2 3 4 5 6 7 8 9 10 11 12 13 14 15 16 17 18 19 20 21 22 23 24 25 26 27 28 29 30 31 32 33 34 35 36 37 38 39 40 41 42 43 44 45 46 47 48 49 50

854
AXUS43 KGID 200502
MISGRI

GID CWA HOURLY WEATHER ROUNDUP
NATIONAL WEATHER SERVICE HASTINGS NE
1100 PM CST SUN FEB 19 2017

NOTE: "FAIR" INDICATES FEW OR NO CLOUDS BELOW 12,000 FEET WITH NO
SIGNIFICANT WEATHER AND/OR OBSTRUCTIONS TO VISIBILITY.

...SOUTH CENTRAL NEBRASKA...

CITY           SKY/WX    TMP DP  RH WIND       PRES   REMARKS
GRAND ISLAND   PTCLDY    54  52  93 S16G23    29.76S
HASTINGS       CLOUDY    55  51  86 S12       29.77F
KEARNEY        CLOUDY    55  52  88 S20G28    29.74F
ORD            PTCLDY    54  49  83 S15       29.71S
YORK           MOCLDY    54  50  87 S12       29.78F
AURORA         CLOUDY    54  51  91 S15       29.77F
LEXINGTON      MOCLDY    55  51  86 S18G25    29.69F
HOLDREGE       CLOUDY    55  51  89 SE17G23   29.72F
HEBRON         PTCLDY    55  52  88 SE12G18   29.78F

...NEBRASKA PANHANDLE...

CITY           SKY/WX    TMP DP  RH WIND       PRES   REMARKS
CHADRON        CLOUDY    50  36  58 SW5       29.60R
ALLIANCE       PTCLDY    42  34  73 SW8       29.61R
SCOTTSBLUFF    CLOUDY    50  35  56 W12       29.64R
SIDNEY         CLOUDY    49  33  54 NW12      29.64R

...WESTERN AND NORTH CENTRAL NEBRASKA...

CITY           SKY/WX    TMP DP  RH WIND       PRES   REMARKS
VALENTINE      PTCLDY    58  44  60 S16       29.60R
AINSWORTH      CLOUDY    56  48  74 S20       29.60F
ONEILL         MOCLDY    55  50  82 S16G22    29.69S
BROKEN BOW     CLOUDY    56  52  86 S22G29    29.67F
IMPERIAL       PTCLDY    54  31  41 S5        29.64R
NORTH PLATTE   CLOUDY    57  49  74 SE12      29.63R
MCCOOK         CLOUDY    56  50  80 S14       29.67R

...EASTERN NEBRASKA...

CITY           SKY/WX    TMP DP  RH WIND       PRES   REMARKS
NORFOLK        CLOUDY    55  49  80 S21G28    29.75S
SO SIOUX CITY  CLOUDY    59  52  77 S16G26    29.80R
TEKAMAH        MOCLDY    55  51  86 S13       29.82S
COLUMBUS       PTCLDY    54  48  82 S13       29.78F
ALBION         PTCLDY    55  50  83 S15       29.75F
OMAHA EPPLEY   CLOUDY    59  52  77 S15       29.83F
OFFUTT AFB     CLOUDY    57  57 100 S7        29.83F
MILLARD        CLOUDY    59  54  84 SE6       29.83F
LINCOLN        PTCLDY    56  53  90 S9        29.81F
NEBRASKA CITY  PTCLDY    55  51  86 S9        29.85F
BEATRICE       PTCLDY    58  54  86 S10       29.80F
FALLS CITY     CLOUDY    55  52  89 CALM      29.85F

...NORTHERN KANSAS...

CITY           SKY/WX    TMP DP  RH WIND       PRES   REMARKS
GOODLAND       PTCLDY    52  30  43 S18       29.66F
HILL CITY      CLOUDY    57  55  93 S14G21    29.72F
NORTON         PTCLDY    55  48  76 SE12G18   29.70F
PHILLIPSBURG   PTCLDY    55  55 100 SE7       29.73F
SMITH CENTER   CLEAR     52  52 100 SE13      29.75F FOG
HAYS           PTCLDY    57  55  93 S16       29.75F
RUSSELL        PTCLDY    58  55  90 S18       29.75F
CONCORDIA      CLOUDY    58  54  86 SE14      29.79F
SALINA         CLOUDY    60  55  83 S8        29.81S
TOPEKA         PTCLDY    53  50  89 E5        29.86F



USA.gov is the U.S. government's official web portal to all federal, state and local government web resources and services.